Погода в Кюрдамире

Азербайджан     40°20′51″N   48°08′50″E
темп.,
°C
ветер,
м/с
пор.,
м/с
влажн.,
%
обл.,
%
осадки,
мм/ч
давл.,
гПа
погр.,
м
5 декабря, вс
вс501:00+6ссз11640 0.0 101810
04:00+6сз226596 0.0 101711
07:00+5з3366100 0.0 101643
10:00+8з35580 0.0 1016210
13:00+13з68351 0.0 1013609
16:00+14зсз59300 0.0 1012591
19:00+10зюз22385 0.0 101214
22:00+9юз0043100 0.0 101410
6 декабря, пн
пн601:00+9ссз2242100 0.0 101410
04:00+7ссз114799 0.0 101510
07:00+7юв11480 0.0 101710
10:00+10вюв23410 0.0 1021140
13:00+14ю22320 0.0 1021576
16:00+16ююв12320 0.0 1021596
19:00+12в33525 0.0 102321
22:00+10юв33865 0.0 102438
7 декабря, вт
вт701:00+8вюв22895 0.0 102522
04:00+8в22905 0.0 102510
07:00+7в11905 0.0 102510
10:00+10всв118185 0.0 1026124
13:00+13вюв11705 0.0 1024631
16:00+14вюв12630 0.0 1023615
19:00+11всв33795 0.0 102339
22:00+10в338915 0.0 102334
8 декабря, ср
ср801:00+9вюв2293100 0.0 102211
04:00+9юз009398 0.0 102110
07:00+10сз229198 0.0 102035
10:00+11зсз227686 0.0 1020124
13:00+13з11636 0.0 1018684
16:00+14зсз22571 0.0 1016622
19:00+11зсз22680 0.0 101610
22:00+10ссз1171100 0.0 101510
9 декабря, чт
чт901:00+9ссз22720 0.0 101310
04:00+8зсз34700 0.0 101349
07:00+8з2365100 0.0 101352
10:00+10зсз2255100 0.0 1013133
13:00+13зюз224686 0.0 1013311
16:00+14з344491 0.0 1016522
19:00+11ссз2356100 0.0 101771
22:00+11з3463100 0.0 102071